Wind_Speed
19 18 17 17 17 17 17 18 18 19 20 21 22 22 23 25 26 27 28 29 31 32 33 34 35 36 36 37 37 36 35 34 33 33 32 31 30 30 29 28 27 26 25
21 20 20 20 19 19 20 20 21 21 22 23 24 25 25 27 28 29 30 31 32 34 35 36 37 37 38 38 38 36 36 35 34 33 32 32 31 30 29 28 28 27 26
24 23 23 22 22 22 22 23 23 24 24 25 26 27 28 29 30 31 32 33 34 35 37 38 38 39 39 39 38 37 37 36 35 34 33 32 32 31 30 29 29 29 28
27 26 26 26 25 25 25 26 26 26 27 28 29 29 30 31 32 33 35 36 37 37 38 39 40 41 41 40 39 38 37 37 36 35 34 33 32 32 31 31 31 31 30
31 30 30 29 29 28 28 29 29 29 30 31 31 32 33 34 35 35 36 38 39 39 40 40 41 42 42 41 40 39 38 38 37 36 36 35 34 33 32 32 32 32 31
35 34 34 33 32 32 32 32 32 32 33 34 34 34 35 36 37 37 38 39 40 41 42 42 43 43 43 42 40 40 39 38 37 37 37 36 35 34 34 33 34 34 33
38 38 37 36 36 35 35 36 36 36 36 37 37 37 37 37 38 39 39 40 42 42 43 43 44 43 43 42 41 41 40 38 38 38 37 37 36 36 36 35 35 35 34
42 41 41 40 39 39 39 39 39 39 39 39 40 40 39 38 39 40 40 41 42 43 44 45 44 44 44 43 42 41 40 39 38 38 37 37 37 37 37 36 36 35 35
44 44 44 43 43 43 43 43 43 42 42 41 42 43 43 41 40 40 41 41 42 43 44 45 45 44 44 43 42 41 40 39 38 38 37 37 37 37 37 37 37 36 34
46 47 47 47 47 46 46 45 45 44 44 43 43 44 44 44 44 42 42 42 43 44 44 45 45 44 43 43 42 41 39 39 38 37 37 37 36 37 37 37 36 35 34
49 49 49 49 49 48 47 47 46 46 45 45 45 45 44 45 44 44 43 44 45 44 45 45 45 44 43 42 41 40 39 38 37 37 36 36 36 36 36 35 35 34 34
49 49 50 49 49 48 48 47 47 46 46 46 46 46 45 44 44 44 44 45 45 45 45 45 44 43 42 42 41 40 38 37 37 36 35 35 35 35 34 33 33 32 33
49 49 49 49 49 49 49 48 48 47 47 47 46 46 45 45 45 45 45 44 44 44 45 44 44 43 42 41 39 38 37 37 36 35 34 33 33 33 32 31 32 32 32
51 50 49 49 49 49 49 48 48 47 47 47 46 46 46 45 46 46 45 45 44 44 44 43 42 42 41 39 38 37 36 36 35 34 33 33 32 31 29 29 30 31 31
51 51 50 49 49 49 49 48 48 48 47 47 47 46 46 46 46 45 45 45 44 44 43 42 41 40 38 37 37 36 35 34 33 33 32 31 30 29 29 28 28 28 29
51 52 51 50 50 50 49 49 49 48 48 48 47 47 47 46 46 45 45 45 44 43 41 40 39 37 36 36 35 34 33 33 32 31 31 29 29 28 28 27 27 26 27
52 51 51 51 51 51 50 50 49 49 48 48 48 47 46 46 45 45 45 44 42 41 39 38 37 35 34 34 33 32 32 31 31 30 29 29 28 28 27 27 27 27 27
52 51 51 51 51 51 51 50 50 49 48 48 47 47 46 45 45 44 43 41 40 38 37 35 34 33 33 32 31 31 31 30 30 29 29 29 28 28 27 27 27 26 26
49 49 50 50 50 49 49 48 48 47 47 46 45 45 45 44 43 42 40 38 37 36 34 33 32 32 31 31 31 30 30 29 29 29 29 28 28 28 27 27 27 27 27
47 47 48 48 47 46 46 46 45 45 45 44 44 43 43 42 41 39 37 35 34 33 32 31 31 30 30 30 30 29 29 29 29 29 29 29 29 29 29 29 29 29 29
45 45 45 45 45 45 45 45 44 44 44 43 42 41 40 39 38 36 34 33 32 31 31 30 30 30 30 30 30 29 29 30 30 30 30 30 30 31 31 31 31 31 31
42 43 43 43 43 43 43 43 43 42 42 41 39 38 37 36 35 34 33 31 30 30 29 29 29 30 30 30 29 30 30 31 31 32 32 32 32 32 33 33 33 33 33
40 40 41 41 41 41 41 41 40 39 38 37 36 35 35 34 32 31 30 30 30 29 29 29 30 30 30 30 30 31 32 32 33 33 33 33 34 34 34 35 35 36 36
38 38 38 39 39 38 38 37 36 36 35 34 33 32 32 31 30 29 29 30 30 29 30 30 30 30 31 31 32 33 33 34 34 35 35 35 35 36 36 37 38 38 38
37 36 36 36 36 36 36 35 34 32 32 31 31 30 29 29 29 30 30 30 30 30 31 31 31 32 33 33 34 35 35 36 36 36 37 37 37 38 38 39 39 40 40
34 34 33 33 33 33 32 32 31 30 29 29 29 29 29 29 30 30 30 30 31 31 32 32 33 33 34 35 36 37 37 38 38 38 38 38 39 39 39 40 41 42 42
Wind_Direction
254 261 267 272 276 281 286 289 293 297 300 302 304 306 308 309 310 311 312 313 314 315 316 317 318 319 319 319 318 317 314 312 311 309 306 304 302 299 297 295 293 290 288
256 262 267 272 276 281 285 289 292 295 298 300 301 303 305 306 307 308 309 310 311 312 313 314 315 316 317 317 316 314 312 311 309 307 304 301 300 298 296 294 291 289 287
258 263 267 272 277 281 285 288 291 293 295 297 299 301 303 304 305 305 306 307 308 310 311 312 313 314 315 315 314 312 310 309 307 304 302 300 298 296 294 292 291 289 287
260 264 268 272 277 280 284 287 290 293 294 296 298 300 301 302 303 303 304 305 306 308 309 310 312 313 313 313 312 310 309 307 304 302 300 298 296 294 292 291 290 288 286
262 266 269 273 277 280 283 286 289 292 293 295 296 298 299 300 301 301 302 304 305 306 307 309 310 311 312 311 310 308 307 305 302 300 298 297 295 293 292 290 289 287 285
265 268 271 274 277 280 283 286 288 290 292 294 295 296 297 298 299 300 301 303 304 305 306 307 309 310 310 309 308 307 305 303 301 299 298 296 295 293 291 290 288 287 285
268 269 271 274 277 280 283 286 288 289 291 292 293 294 296 297 298 299 301 302 303 304 305 306 307 308 308 307 306 305 303 301 299 298 296 295 294 293 291 289 288 286 284
268 270 271 274 276 279 282 285 287 288 290 291 292 293 294 295 296 298 300 301 302 303 304 305 306 306 306 305 305 303 302 300 298 297 295 294 293 293 292 290 288 285 284
269 270 272 274 276 279 281 283 285 287 288 290 291 293 294 295 295 297 298 299 300 301 302 303 303 304 304 304 303 302 300 299 298 296 295 294 293 292 291 290 288 285 282
269 270 272 274 276 278 279 281 283 285 287 288 290 291 293 294 295 296 298 299 300 300 301 302 303 303 303 302 302 301 299 299 298 297 295 294 292 292 291 290 287 285 282
270 271 273 274 276 277 278 280 282 284 286 287 288 290 291 293 295 296 297 299 300 300 300 301 302 301 301 301 301 300 299 299 298 297 296 294 293 292 290 289 287 285 283
269 271 272 273 275 276 278 280 281 283 284 285 286 288 290 292 293 295 296 298 298 299 299 300 300 299 299 300 300 300 299 299 298 297 296 296 294 293 289 288 286 283 282
269 270 270 272 274 275 277 278 279 281 282 284 285 287 289 291 292 294 295 296 297 297 298 298 298 298 298 299 299 299 299 299 299 298 297 296 295 294 290 287 285 283 282
268 268 269 271 273 274 276 277 278 280 281 283 284 286 288 290 291 293 294 295 295 296 296 296 296 297 298 298 298 299 299 299 299 299 297 297 296 295 292 289 286 284 282
268 269 270 271 271 273 274 276 277 279 280 282 284 285 287 288 289 291 292 293 294 294 294 295 295 296 296 297 298 299 299 299 299 299 298 297 297 296 294 292 289 288 285
267 268 269 270 271 273 273 275 276 278 280 282 283 284 286 287 288 290 290 291 291 292 292 293 294 294 295 296 298 299 299 300 299 299 298 297 297 298 295 293 292 288 287
267 268 269 270 271 272 273 275 277 278 280 282 283 284 285 286 287 288 288 289 289 290 291 292 293 294 295 297 297 299 300 300 300 299 298 297 297 297 296 294 293 290 289
267 268 270 271 272 273 274 275 277 278 280 281 282 283 283 284 285 286 287 287 287 288 289 291 292 293 294 295 297 298 299 299 299 299 298 297 296 296 296 294 293 292 290
268 269 270 271 272 273 274 276 277 278 279 280 280 281 281 282 283 284 284 285 286 287 288 289 290 292 293 294 296 297 298 298 298 298 298 297 296 295 295 294 293 292 289
269 270 271 271 272 273 273 275 276 276 277 278 278 279 280 281 282 281 282 283 284 285 286 288 289 290 292 294 295 296 297 298 298 297 297 296 295 295 294 294 293 291 289
271 271 271 271 271 272 272 273 274 274 275 276 278 278 279 279 279 280 281 281 282 283 285 286 288 290 291 293 294 296 297 298 297 296 296 295 295 294 294 293 292 291 289
271 271 271 271 271 271 272 272 273 274 275 275 276 276 276 276 277 278 279 279 281 282 284 286 287 289 291 293 295 296 297 297 297 296 296 295 294 294 293 292 291 290 289
272 272 271 271 271 271 271 272 272 273 274 274 274 274 275 275 276 276 277 279 281 282 283 285 287 290 291 293 294 295 296 296 296 295 295 295 294 294 293 291 290 289 288
272 272 271 271 271 271 271 270 270 271 272 272 273 273 273 273 274 275 276 279 280 282 283 285 288 290 291 293 294 295 295 296 295 295 295 294 294 293 293 292 291 290 288
272 272 272 271 270 269 269 270 270 270 270 271 270 271 271 272 273 274 276 279 281 283 284 286 288 290 291 293 294 294 294 295 295 295 294 294 294 294 293 292 291 290 289
272 271 271 271 270 269 269 268 268 268 269 269 269 269 271 272 274 276 278 280 282 284 285 287 289 290 292 293 293 294 294 294 294 294 294 294 294 294 293 292 292 291 290
Height
5870 5871 5872 5872 5872 5872 5872 5871 5871 5870 5870 5869 5867 5866 5865 5863 5861 5860 5858 5856 5853 5851 5849 5846 5843 5840 5837 5834 5830 5827 5824 5821 5818 5815 5812 5810 5808 5806 5804 5802 5801 5799 5799
5866 5867 5868 5868 5868 5868 5868 5867 5867 5866 5865 5864 5863 5862 5861 5859 5857 5855 5853 5851 5848 5846 5843 5840 5837 5834 5831 5828 5824 5821 5817 5814 5811 5808 5806 5803 5801 5799 5797 5796 5794 5793 5792
5861 5862 5863 5863 5863 5863 5863 5862 5862 5861 5861 5859 5858 5857 5856 5854 5852 5849 5847 5845 5843 5840 5837 5834 5831 5828 5825 5821 5818 5814 5811 5807 5804 5801 5799 5796 5794 5792 5791 5789 5788 5786 5786
5856 5857 5858 5858 5858 5858 5858 5857 5857 5856 5855 5854 5853 5851 5850 5848 5846 5844 5841 5838 5836 5834 5831 5828 5824 5821 5818 5814 5811 5807 5804 5800 5797 5794 5792 5789 5787 5785 5784 5782 5781 5779 5778
5851 5851 5852 5852 5852 5852 5852 5851 5851 5850 5849 5848 5847 5845 5843 5842 5840 5837 5834 5831 5829 5826 5823 5821 5817 5814 5810 5807 5804 5800 5796 5793 5790 5787 5784 5782 5780 5778 5776 5775 5773 5772 5771
5844 5845 5845 5845 5846 5846 5845 5845 5844 5843 5842 5841 5840 5838 5837 5835 5832 5830 5827 5824 5821 5818 5815 5812 5809 5806 5802 5799 5796 5792 5789 5785 5782 5779 5776 5774 5772 5770 5768 5767 5765 5764 5763
5837 5838 5838 5838 5838 5838 5838 5837 5836 5836 5835 5833 5832 5831 5830 5827 5825 5822 5819 5816 5813 5810 5807 5804 5801 5797 5794 5791 5787 5784 5781 5777 5774 5771 5768 5765 5763 5761 5760 5758 5757 5755 5754
5829 5830 5830 5830 5830 5830 5830 5829 5828 5827 5826 5825 5823 5822 5822 5821 5817 5814 5812 5808 5805 5801 5798 5795 5792 5788 5785 5782 5779 5775 5772 5769 5766 5762 5759 5757 5754 5752 5750 5749 5747 5746 5745
5820 5821 5821 5822 5822 5822 5821 5820 5819 5819 5818 5816 5814 5812 5811 5811 5809 5807 5804 5800 5797 5793 5790 5786 5783 5779 5776 5773 5770 5766 5763 5760 5757 5754 5751 5748 5745 5743 5741 5739 5737 5736 5736
5811 5812 5812 5812 5813 5813 5812 5811 5810 5809 5808 5807 5805 5803 5801 5799 5798 5798 5795 5791 5788 5784 5780 5777 5773 5770 5767 5763 5760 5757 5754 5751 5748 5745 5742 5739 5737 5734 5731 5729 5728 5726 5726
5801 5802 5803 5803 5803 5803 5802 5801 5801 5800 5798 5797 5796 5794 5792 5790 5788 5787 5785 5782 5778 5774 5771 5767 5764 5761 5757 5754 5750 5747 5744 5741 5739 5736 5733 5730 5728 5725 5722 5720 5718 5717 5716
5792 5792 5792 5792 5792 5792 5792 5791 5791 5790 5789 5787 5786 5784 5782 5781 5779 5776 5775 5772 5769 5765 5761 5758 5755 5751 5748 5744 5741 5738 5735 5732 5729 5726 5724 5721 5718 5715 5713 5711 5709 5707 5706
5782 5782 5782 5782 5782 5782 5781 5781 5780 5779 5778 5777 5776 5774 5772 5770 5768 5766 5764 5762 5759 5755 5752 5748 5745 5741 5738 5735 5732 5729 5726 5723 5720 5717 5714 5712 5709 5706 5704 5702 5700 5698 5697
5771 5771 5771 5771 5771 5771 5770 5770 5770 5769 5768 5766 5765 5764 5762 5760 5758 5755 5753 5751 5748 5745 5742 5739 5735 5732 5729 5726 5723 5720 5717 5714 5711 5708 5705 5703 5700 5697 5695 5693 5691 5689 5688
5759 5759 5759 5760 5760 5760 5759 5759 5758 5758 5757 5756 5754 5753 5751 5749 5747 5745 5742 5740 5738 5735 5732 5729 5726 5722 5719 5716 5714 5711 5708 5705 5702 5699 5697 5694 5692 5689 5687 5684 5682 5680 5679
5747 5747 5748 5748 5748 5748 5748 5748 5747 5746 5746 5744 5743 5742 5740 5738 5736 5734 5731 5729 5727 5725 5722 5718 5716 5713 5710 5707 5705 5702 5699 5696 5694 5691 5688 5686 5684 5681 5679 5677 5675 5673 5671
5735 5735 5736 5736 5736 5736 5736 5736 5735 5735 5734 5733 5732 5730 5729 5727 5725 5723 5721 5718 5716 5714 5712 5709 5706 5704 5701 5699 5696 5694 5691 5688 5685 5683 5680 5678 5676 5673 5671 5669 5667 5665 5664
5723 5723 5724 5724 5724 5724 5724 5724 5723 5723 5722 5721 5720 5719 5717 5716 5714 5712 5710 5708 5706 5704 5702 5700 5697 5695 5693 5690 5688 5685 5683 5680 5677 5675 5673 5670 5668 5666 5664 5661 5659 5658 5656
5711 5711 5711 5712 5712 5712 5712 5711 5711 5711 5710 5709 5708 5707 5706 5704 5702 5701 5699 5697 5696 5694 5692 5690 5688 5686 5684 5682 5680 5677 5675 5672 5670 5667 5665 5663 5660 5658 5656 5654 5652 5650 5649
5699 5699 5699 5699 5699 5699 5699 5699 5699 5699 5698 5697 5696 5695 5694 5693 5692 5690 5689 5687 5686 5685 5683 5682 5680 5678 5676 5674 5671 5669 5667 5664 5662 5659 5657 5655 5652 5650 5648 5646 5644 5642 5641
5687 5688 5688 5688 5688 5688 5688 5688 5687 5687 5687 5686 5685 5684 5683 5682 5681 5680 5679 5678 5677 5676 5674 5673 5671 5669 5667 5665 5663 5661 5658 5656 5653 5651 5649 5646 5644 5642 5640 5637 5635 5634 5632
5676 5676 5676 5676 5676 5676 5676 5676 5676 5676 5675 5675 5674 5673 5673 5672 5671 5671 5670 5669 5668 5667 5666 5664 5663 5661 5659 5656 5654 5652 5650 5647 5645 5643 5640 5638 5635 5633 5630 5628 5626 5624 5622
5665 5665 5665 5665 5665 5665 5665 5665 5665 5665 5664 5664 5664 5663 5663 5663 5662 5662 5661 5660 5659 5658 5657 5656 5654 5652 5650 5648 5646 5643 5641 5638 5636 5633 5630 5628 5626 5623 5620 5618 5616 5614 5612
5655 5654 5654 5654 5654 5654 5654 5654 5654 5654 5654 5654 5654 5654 5654 5653 5653 5653 5652 5651 5651 5649 5648 5647 5645 5643 5641 5639 5636 5634 5631 5629 5626 5623 5621 5618 5615 5613 5610 5607 5604 5602 5600
5644 5644 5644 5644 5644 5644 5644 5644 5644 5644 5644 5645 5645 5645 5645 5645 5645 5644 5644 5643 5642 5640 5639 5637 5635 5633 5631 5629 5627 5624 5622 5619 5616 5613 5610 5607 5604 5602 5599 5596 5593 5590 5587
5634 5634 5634 5634 5634 5635 5635 5635 5635 5635 5636 5636 5636 5636 5636 5636 5636 5636 5635 5634 5633 5631 5630 5628 5626 5624 5621 5619 5616 5614 5611 5608 5605 5602 5599 5596 5593 5590 5587 5584 5580 5577 5574